#timestamp,LO_Frequency,Hit,StdDev 
1671357615.6,286047002.2,N
1671357635.4,286047001.6,N
1671357655.3,286047000.6,N
1671357675.1,286047001.0,N
1671357676.0,286047001.0,N
1671357695.8,286046998.4,N
1671357715.7,286046999.4,N
1671357735.5,286046998.6,N
1671357755.3,286047000.5,N
1671357775.2,286047000.0,N
1671357795.0,286046998.4,N
1671357795.9,286046998.4,N
1671357815.8,286046998.9,N
1671357835.6,286046998.9,N
1671357855.4,286046999.0,N
1671357875.3,286046996.7,N
1671357895.1,286046997.6,N
1671357915.8,286046999.2,N
1671357935.7,286046999.0,N
1671357955.5,286046996.5,N
1671357975.4,286046997.8,N
1671357995.2,286046997.8,N
1671358015.0,286046999.5,N
1671358015.9,286046999.5,N
1671358035.8,286046999.2,N
1671358055.6,286046997.0,N
1671358075.5,286046999.5,N
1671358095.3,286046999.2,N
1671358115.1,286046998.2,N
1671358135.9,286046998.6,N
1671358155.7,286046996.9,N
1671358175.5,286046996.5,N
1671358195.4,286046997.2,N
1671358215.2,286046999.6,N
1671358235.0,286046998.0,N
1671358236.0,286046998.0,N
1671358255.8,286046995.5,Y
1671358275.6,286046999.4,P
1671358295.5,286046998.5,P
1671358315.3,286046998.6,P
1671358335.2,286046999.3,N
1671358355.9,286046996.5,Y
1671358375.7,286046999.4,P
1671358395.6,286046997.4,P
1671358415.4,286046999.6,N
1671358435.2,286046999.3,N
1671358455.1,286046997.7,N
1671358456.0,286046997.7,N
1671358475.8,286046997.1,Y
1671358495.7,286046998.5,P
1671358515.5,286046999.6,P
1671358535.3,286046998.1,P
1671358555.2,286047000.5,N
1671358575.0,286046999.3,N
1671358575.9,286046999.3,N
1671358595.8,286046999.6,N
1671358615.6,286046997.0,Y
1671358635.4,286046999.4,P
1671358655.3,286046998.7,P
1671358675.1,286046999.1,P
1671358695.8,286046996.5,Y
1671358715.7,286046998.3,P
1671358735.5,286046998.5,P
1671358755.4,286046999.1,N
1671358775.2,286046996.5,Y
1671358795.0,286046998.5,P
1671358795.9,286046998.5,P
1671358815.8,286046998.5,P
1671358835.6,286046998.5,Y
1671358855.5,286047002.1,P
1671358875.3,286047000.1,N
1671358895.1,286047000.1,N
1671358915.9,286047002.2,N
1671358935.7,286047002.4,N
1671358955.5,286047000.8,N
1671358975.4,286047001.0,N
1671358995.2,286046999.1,N
1671359015.0,286046998.1,N
1671359016.0,286046998.1,N
1671359035.8,286047001.1,N
1671359055.6,286046998.9,N
1671359075.5,286047000.7,N
1671359095.3,286046999.0,N
1671359115.1,286046998.2,N
1671359135.9,286047000.6,N
1671359155.7,286046998.8,N
1671359175.6,286046998.3,N
1671359195.4,286046998.9,N
1671359215.2,286046999.3,N
1671359235.1,286046998.9,N
1671359236.0,286046998.9,N
1671359255.8,286046999.3,N
1671359275.7,286046996.9,N
1671359295.5,286046997.0,N
1671359315.3,286046999.4,N
1671359335.2,286046999.0,N
1671359355.0,286046999.6,N
1671359355.9,286046999.6,N
1671359375.7,286046997.1,N
1671359395.6,286046997.0,N
1671359415.4,286046999.4,N
1671359435.3,286046997.2,N
1671359455.1,286046997.3,N
1671359456.0,286046997.3,N
1671359475.8,286046997.2,N
1671359495.7,286046995.2,Y
1671359515.5,286046997.0,P
1671359535.4,286046998.8,N
1671359555.2,286046998.6,N
1671359575.0,286046998.7,N
1671359575.9,286046998.7,N
1671359595.8,286046998.6,N
1671359615.6,286046997.0,Y
1671359635.4,286047001.2,P
1671359655.3,286046998.6,N
1671359675.1,286046998.5,N
1671359695.9,286046999.5,N
1671359715.7,286046997.1,N
1671359735.5,286046996.7,N
1671359755.4,286046998.8,N
1671359775.2,286046995.0,Y
1671359795.1,286046997.4,P
1671359796.0,286046997.4,P
1671359815.8,286046997.9,P
1671359835.6,286046999.2,N
1671359855.5,286046996.9,Y
1671359875.3,286047000.6,P
1671359895.2,286046999.7,N
1671359915.0,286046998.2,N
1671359915.9,286046998.2,N
1671359935.8,286046998.7,N
1671359955.6,286046997.4,N
1671359975.4,286046996.7,Y
1671359995.3,286046999.9,P
1671360015.1,286047002.7,P
1671360035.9,286047000.6,N
1671360055.8,286047002.3,N
1671360075.6,286047002.3,N
1671360095.5,286047003.6,N
1671360115.3,286047003.1,N
1671360135.2,286047006.0,Y
1671360155.0,286047002.5,P
1671360155.9,286047002.5,P
1671360175.8,286047002.8,P
1671360195.6,286047002.7,Y
1671360215.4,286046998.7,P
1671360235.3,286047001.1,N
1671360255.1,286046998.8,N
1671360275.9,286046999.1,N
1671360295.7,286046996.7,N
1671360315.5,286046998.3,N
1671360335.4,286046999.6,N
1671360355.2,286046999.2,N
1671360375.1,286046999.0,N
1671360376.0,286046999.0,N
1671360395.8,286046999.2,N
1671360415.6,286046998.9,N
1671360435.5,286046998.3,N
1671360455.3,286046998.8,N
1671360475.2,286046997.7,N
1671360495.9,286046997.1,N
1671360515.7,286046997.3,N
1671360535.6,286046998.0,N
1671360555.4,286046995.5,Y
1671360575.3,286046995.3,P
1671360595.1,286046996.8,N
1671360596.0,286046996.8,N
1671360615.8,286046998.3,N
1671360635.7,286046999.0,N
1671360655.5,286046998.9,N
1671360675.4,286046998.6,N
1671360695.2,286047001.2,N
1671360715.0,286047002.8,N
1671360715.9,286047002.8,N
1671360735.8,286047000.7,N
1671360755.6,286046999.3,N
1671360775.4,286046999.0,N
1671360795.3,286046999.3,N
1671360815.1,286046996.6,N
1671360835.9,286046998.2,N
1671360855.7,286047000.9,N
1671360875.5,286047002.8,N
1671360895.4,286047002.6,N
1671360915.2,286047002.3,N
1671360935.1,286047001.0,N
1671360936.0,286047001.0,N
1671360955.8,286047002.1,N
1671360975.6,286047002.1,N
1671360995.5,286047001.5,N
1671361015.3,286047002.4,N
1671361035.1,286047000.4,N
1671361055.9,286047000.7,N
1671361075.7,286047001.0,N
1671361095.6,286047000.1,N
1671361115.4,286047000.8,N
1671361135.2,286047000.1,N
1671361155.1,286047002.6,N
1671361156.0,286047002.6,N
1671361175.8,286047002.1,N
1671361195.7,286046998.6,N
